FW6650 Weather Reports


Display with metric or nautical units.
time (UTC)temp
F
wind
direction
speed
MPH
gust
MPH
rain 1hr
in
rain 24hr
in
rain mn
in
humidity
%
barometer
mb
20260903105026 88 13 11.0 20.0 0.00 0.00 0.00 43 1012.2
20260903104546 88 321 9.0 18.0 0.00 0.00 0.00 42 1012.1
20260903104025 88 48 11.0 18.0 0.00 0.00 0.00 43 1012.2
20260903103527 88 323 8.0 18.0 0.00 0.00 0.00 42 1012.2
20260903103040 87 340 11.0 18.0 0.00 0.00 0.00 42 1012.3
20260903102525 88 334 9.0 18.0 0.00 0.00 0.00 41 1012.2
20260903102025 88 343 11.0 18.0 0.00 0.00 0.00 42 1012.3
20260903101543 88 45 6.0 18.0 0.00 0.00 0.00 43 1012.3
20260903101024 88 41 9.0 18.0 0.00 0.00 0.00 43 1012.3
20260903100527 88 5 12.0 18.0 0.00 0.00 0.00 43 1012.3
20260903100047 87 44 6.0 20.0 0.00 0.00 0.00 43 1012.2
20260903095524 88 24 11.0 20.0 0.00 0.00 0.00 42 1012.5
20260903095026 88 348 11.0 26.0 0.00 0.00 0.00 40 1012.3
20260903094544 88 10 12.0 26.0 0.00 0.00 0.00 41 1012.4
20260903094027 88 350 14.0 26.0 0.00 0.00 0.00 42 1012.5
20260903093527 88 347 11.0 23.0 0.00 0.00 0.00 40 1012.5
20260903093045 88 47 13.0 23.0 0.00 0.00 0.00 41 1012.6
20260903092526 88 339 10.0 21.0 0.00 0.00 0.00 40 1012.7
20260903092026 87 331 11.0 21.0 0.00 0.00 0.00 41 1012.7
20260903091552 87 348 10.0 22.0 0.00 0.00 0.00 41 1012.7
20260903091025 87 19 10.0 22.0 0.00 0.00 0.00 42 1012.7
20260903090525 87 17 11.0 22.0 0.00 0.00 0.00 42 1012.8
20260903090050 87 82 5.0 21.0 0.00 0.00 0.00 43 1012.8
20260903085524 87 5 9.0 24.0 0.00 0.00 0.00 43 1012.8
20260903085024 86 22 14.0 24.0 0.00 0.00 0.00 43 1012.9
20260903084541 87 348 7.0 22.0 0.00 0.00 0.00 42 1012.9
20260903084025 87 30 8.0 19.0 0.00 0.00 0.00 42 1013.0
20260903083527 86 15 10.0 19.0 0.00 0.00 0.00 42 1013.1
20260903083044 86 35 10.0 17.0 0.00 0.00 0.00 43 1013.1
20260903082526 86 44 6.0 13.0 0.00 0.00 0.00 44 1013.0
20260903082027 86 48 8.0 13.0 0.00 0.00 0.00 44 1013.1
20260903081549 86 344 7.0 13.0 0.00 0.00 0.00 44 1013.0
20260903081024 85 17 4.0 18.0 0.00 0.00 0.00 45 1013.0
20260903080528 85 360 7.0 18.0 0.00 0.00 0.00 44 1013.1
20260903080045 85 51 8.0 15.0 0.00 0.00 0.00 45 1013.0
20260903075527 84 38 7.0 17.0 0.00 0.00 0.00 47 1013.0
20260903075026 84 26 9.0 18.0 0.00 0.00 0.00 46 1013.1
20260903074539 84 347 10.0 18.0 0.00 0.00 0.00 46 1013.1
20260903074024 84 55 9.0 16.0 0.00 0.00 0.00 47 1013.1
20260903073523 83 325 7.0 16.0 0.00 0.00 0.00 48 1013.0
20260903073056 83 344 7.0 13.0 0.00 0.00 0.00 48 1013.0
20260903072525 82 43 6.0 13.0 0.00 0.00 0.00 48 1013.0
20260903072024 82 11 4.0 13.0 0.00 0.00 0.00 49 1012.9
20260903071545 82 12 5.0 14.0 0.00 0.00 0.00 48 1012.9
20260903071024 83 13 6.0 14.0 0.00 0.00 0.00 48 1013.0
20260903070524 83 53 8.0 14.0 0.00 0.00 0.00 48 1012.9
20260903070044 83 355 7.0 14.0 0.00 0.00 0.00 47 1012.8
20260903065526 82 51 8.0 16.0 0.00 0.00 0.00 47 1012.8
20260903065030 82 338 9.0 16.0 0.00 0.00 0.00 48 1012.8
20260903064541 83 355 10.0 16.0 0.00 0.00 0.00 46 1012.7
20260903064025 82 360 8.0 16.0 0.00 0.00 0.00 47 1012.8
20260903063525 82 14 10.0 21.0 0.00 0.00 0.00 47 1012.7
20260903063102 82 355 8.0 21.0 0.00 0.00 0.00 46 1012.7
20260903062527 83 360 11.0 21.0 0.00 0.00 0.00 45 1012.6
20260903062026 83 355 7.0 15.0 0.00 0.00 0.00 44 1012.6
20260903061559 83 5 6.0 15.0 0.00 0.00 0.00 43 1012.4
20260903061023 82 344 7.0 14.0 0.00 0.00 0.00 46 1012.4
20260903060524 82 337 7.0 14.0 0.00 0.00 0.00 45 1012.4
20260903060046 81 360 4.0 14.0 0.00 0.00 0.00 51 1012.5
20260903055523 80 360 5.0 15.0 0.00 0.00 0.00 51 1012.6
20260903055026 80 360 7.0 17.0 0.00 0.00 0.00 52 1012.6
20260903054540 80 342 9.0 17.0 0.00 0.00 0.00 51 1012.7
20260903054025 80 360 9.0 17.0 0.00 0.00 0.00 51 1012.8
20260903053524 80 360 8.0 26.0 0.00 0.00 0.00 52 1012.8
20260903053048 80 360 8.0 26.0 0.00 0.00 0.00 51 1012.9
20260903052525 81 360 14.0 26.0 0.00 0.00 0.00 48 1013.0
20260903052029 81 360 15.0 26.0 0.00 0.00 0.00 47 1012.8
20260903051545 81 360 11.0 22.0 0.00 0.00 0.00 45 1012.6
20260903051024 81 360 14.0 22.0 0.00 0.00 0.00 43 1012.7
20260903050526 81 360 6.0 24.0 0.00 0.00 0.00 47 1012.8
20260903050040 80 360 8.0 24.0 0.00 0.00 0.00 45 1012.7
20260903045524 80 360 9.0 20.0 0.00 0.00 0.00 49 1012.7
20260903045024 80 360 9.0 20.0 0.00 0.00 0.00 47 1012.7
20260903044552 80 360 11.0 20.0 0.00 0.00 0.00 49 1012.7
20260903044027 80 360 10.0 23.0 0.00 0.00 0.00 49 1012.7
20260903043525 80 360 10.0 23.0 0.00 0.00 0.00 49 1012.7
20260903043043 80 360 12.0 22.0 0.00 0.00 0.00 49 1012.7
20260903042528 80 360 8.0 18.0 0.00 0.00 0.00 48 1012.7
20260903042024 80 360 8.0 18.0 0.00 0.00 0.00 47 1012.7
20260903041554 81 360 12.0 18.0 0.00 0.00 0.00 46 1012.6
20260903041025 81 360 8.0 18.0 0.00 0.00 0.00 45 1012.7
20260903040524 81 360 10.0 18.0 0.00 0.00 0.00 45 1012.6
20260903040049 81 360 12.0 18.0 0.00 0.00 0.00 45 1012.4
20260903035524 81 360 12.0 18.0 0.00 0.00 0.00 45 1012.4
20260903035025 81 360 9.0 15.0 0.00 0.00 0.00 45 1012.4
20260903034545 81 360 7.0 14.0 0.00 0.00 0.00 45 1012.4
20260903034026 81 360 7.0 14.0 0.00 0.00 0.00 44 1012.7
20260903033525 81 360 5.0 11.0 0.00 0.00 0.00 44 1012.6
20260903033041 81 360 3.0 6.0 0.00 0.00 0.00 44 1012.7
20260903032526 82 360 3.0 6.0 0.00 0.00 0.00 43 1012.8
20260903032026 82 360 2.0 9.0 0.00 0.00 0.00 43 1012.8
20260903031539 82 360 3.0 9.0 0.00 0.00 0.00 42 1012.7
20260903031024 82 360 3.0 9.0 0.00 0.00 0.00 42 1012.5
20260903030525 82 360 2.0 8.0 0.00 0.00 0.00 42 1012.8
20260903030049 82 360 3.0 6.0 0.00 0.00 0.00 41 1012.6
20260903025526 82 0 0.0 4.0 0.00 0.00 0.00 41 1012.7
20260903025023 82 360 0.0 13.0 0.00 0.00 0.00 40 1012.7
20260903024546 82 360 4.0 16.0 0.00 0.00 0.00 40 1012.6
20260903024026 82 360 3.0 16.0 0.00 0.00 0.00 40 1012.7
20260903023527 82 360 8.0 16.0 0.00 0.00 0.00 41 1012.8
20260903023045 82 360 4.0 11.0 0.00 0.00 0.00 42 1012.5
20260903022528 82 360 6.0 11.0 0.00 0.00 0.00 42 1012.6
20260903022027 82 360 5.0 9.0 0.00 0.00 0.00 42 1012.6
20260903021540 81 360 4.0 14.0 0.00 0.00 0.00 42 1012.5
20260903021025 81 360 4.0 14.0 0.00 0.00 0.00 42 1012.6
20260903020529 81 360 7.0 14.0 0.00 0.00 0.00 42 1012.5
20260903020052 81 360 8.0 12.0 0.00 0.00 0.00 42 1012.5
20260903015525 81 360 8.0 12.0 0.00 0.00 0.00 42 1012.5
20260903015025 81 360 5.0 9.0 0.00 0.00 0.00 42 1012.5
20260903014559 81 0 1.0 5.0 0.00 0.00 0.00 42 1012.6
20260903014031 81 360 1.0 8.0 0.00 0.00 0.00 41 1012.5
20260903013527 81 360 2.0 8.0 0.00 0.00 0.00 41 1012.5
20260903013057 81 360 3.0 8.0 0.00 0.00 0.00 41 1012.6
20260903012525 81 360 2.0 5.0 0.00 0.00 0.00 41 1012.7
20260903012027 81 360 2.0 5.0 0.00 0.00 0.00 41 1012.7
20260903011613 81 360 1.0 4.0 0.00 0.00 0.00 42 1012.6
20260903011030 81 360 1.0 4.0 0.00 0.00 0.00 42 1012.7
20260903010527 81 360 1.0 3.0 0.00 0.00 0.00 42 1012.7
20260903010101 81 360 1.0 3.0 0.00 0.00 0.00 42 1012.6
20260903005527 81 0 0.0 4.0 0.00 0.00 0.00 42 1012.7
20260903005028 81 0 0.0 4.0 0.00 0.00 0.00 41 1012.6
20260903004544 82 360 1.0 5.0 0.00 0.00 0.00 41 1012.6
20260903004027 81 360 1.0 5.0 0.00 0.00 0.00 41 1012.6
20260903003527 81 360 0.0 5.0 0.00 0.00 0.00 41 1012.7
20260903003049 81 360 0.0 3.0 0.00 0.00 0.00 41 1012.6
20260903002526 81 360 0.0 6.0 0.00 0.00 0.00 42 1012.7
20260903002030 81 360 2.0 8.0 0.00 0.00 0.00 41 1012.5
20260903001558 81 360 2.0 8.0 0.00 0.00 0.00 41 1012.5
20260903001031 81 360 2.0 6.0 0.00 0.00 0.00 41 1012.6
20260903000533 81 360 3.0 6.0 0.00 0.00 0.00 41 1012.7
20260903000049 82 360 2.0 8.0 0.00 0.00 0.00 41 1012.7
20260902235528 82 360 3.0 8.0 0.00 0.00 0.00 40 1012.8
20260902235027 82 360 4.0 8.0 0.00 0.00 0.00 40 1012.6
20260902234545 82 360 3.0 8.0 0.00 0.00 0.00 41 1012.6
20260902234027 82 360 3.0 8.0 0.00 0.00 0.00 40 1012.7
20260902233528 82 360 4.0 6.0 0.00 0.00 0.00 40 1012.8
20260902233044 82 360 3.0 6.0 0.00 0.00 0.00 40 1012.8
20260902232528 82 360 4.0 6.0 0.00 0.00 0.00 39 1012.8
20260902232025 83 360 1.0 6.0 0.00 0.00 0.00 39 1012.8
20260902231548 83 360 3.0 10.0 0.00 0.00 0.00 39 1012.8
20260902231029 83 360 4.0 11.0 0.00 0.00 0.00 39 1012.8
20260902230528 83 360 3.0 12.0 0.00 0.00 0.00 39 1012.8
20260902230055 83 360 6.0 12.0 0.00 0.00 0.00 39 1012.9
20260902225529 83 360 6.0 12.0 0.00 0.00 0.00 39 1012.9
20260902225027 83 360 3.0 9.0 0.00 0.00 0.00 39 1012.8
20260902224545 83 360 4.0 11.0 0.00 0.00 0.00 39 1012.9
20260902224024 83 360 6.0 11.0 0.00 0.00 0.00 39 1012.8
20260902223525 83 360 5.0 10.0 0.00 0.00 0.00 39 1013.0
20260902223048 83 360 4.0 9.0 0.00 0.00 0.00 40 1013.0
20260902222529 83 360 4.0 8.0 0.00 0.00 0.00 39 1013.1
20260902222028 83 360 4.0 8.0 0.00 0.00 0.00 39 1013.1
20260902221547 83 360 4.0 6.0 0.00 0.00 0.00 39 1013.2
20260902221027 83 0 1.0 4.0 0.00 0.00 0.00 39 1013.2
20260902220523 83 360 1.0 4.0 0.00 0.00 0.00 39 1013.2
20260902220051 83 360 1.0 6.0 0.00 0.00 0.00 39 1013.2
20260902215526 83 360 1.0 6.0 0.00 0.00 0.00 39 1013.2
20260902215025 83 360 2.0 6.0 0.00 0.00 0.00 39 1013.2
20260902214544 84 360 2.0 5.0 0.00 0.00 0.00 38 1013.3
20260902214023 84 360 1.0 3.0 0.00 0.00 0.00 38 1013.3
20260902213523 84 360 1.0 3.0 0.00 0.00 0.00 38 1013.4
20260902213047 84 360 0.0 4.0 0.00 0.00 0.00 38 1013.3
20260902212525 84 360 1.0 8.0 0.00 0.00 0.00 37 1013.4
20260902212026 84 360 2.0 8.0 0.00 0.00 0.00 37 1013.4
20260902211545 85 360 3.0 11.0 0.00 0.00 0.00 37 1013.3
20260902211028 85 360 4.0 11.0 0.00 0.00 0.00 37 1013.5
20260902210527 85 360 5.0 11.0 0.00 0.00 0.00 37 1013.4
20260902210039 85 360 6.0 11.0 0.00 0.00 0.00 37 1013.4
20260902205525 85 360 4.0 11.0 0.00 0.00 0.00 37 1013.5
20260902205025 85 360 4.0 11.0 0.00 0.00 0.00 37 1013.4
20260902204553 85 360 4.0 11.0 0.00 0.00 0.00 37 1013.4
20260902204026 85 360 3.0 9.0 0.00 0.00 0.00 37 1013.5
20260902203525 85 360 1.0 5.0 0.00 0.00 0.00 36 1013.5
20260902203046 85 360 2.0 5.0 0.00 0.00 0.00 36 1013.5
20260902202526 84 360 2.0 5.0 0.00 0.00 0.00 37 1013.5
20260902202025 85 0 0.0 0.0 0.00 0.00 0.00 37 1013.5
20260902201604 84 0 0.0 0.0 0.00 0.00 0.00 37 1013.5
20260902201025 84 0 0.0 3.0 0.00 0.00 0.00 36 1013.5
20260902200527 85 0 0.0 3.0 0.00 0.00 0.00 36 1013.5
20260902200047 85 360 1.0 5.0 0.00 0.00 0.00 36 1013.6
20260902195525 85 360 1.0 5.0 0.00 0.00 0.00 36 1013.5
20260902195027 85 360 2.0 5.0 0.00 0.00 0.00 36 1013.6
20260902194550 85 360 1.0 4.0 0.00 0.00 0.00 36 1013.5
20260902194029 85 360 1.0 5.0 0.00 0.00 0.00 36 1013.6
20260902193525 85 0 1.0 5.0 0.00 0.00 0.00 36 1013.6
20260902193045 85 360 2.0 5.0 0.00 0.00 0.00 36 1013.6
20260902192525 85 360 3.0 4.0 0.00 0.00 0.00 35 1013.6
20260902192026 85 360 1.0 4.0 0.00 0.00 0.00 36 1013.7
20260902191543 85 360 1.0 3.0 0.00 0.00 0.00 35 1013.7
20260902191025 85 0 1.0 3.0 0.00 0.00 0.00 36 1013.6
20260902190525 85 360 1.0 3.0 0.00 0.00 0.00 36 1013.5
20260902190051 85 0 0.0 4.0 0.00 0.00 0.00 35 1013.6
20260902185527 86 360 1.0 4.0 0.00 0.00 0.00 36 1013.6
20260902185026 86 360 1.0 8.0 0.00 0.00 0.00 35 1013.6
20260902184605 86 360 2.0 8.0 0.00 0.00 0.00 35 1013.6
20260902184027 86 360 2.0 10.0 0.00 0.00 0.00 35 1013.6
20260902183524 86 360 2.0 14.0 0.00 0.00 0.00 35 1013.5
20260902183041 86 360 5.0 14.0 0.00 0.00 0.00 35 1013.5
20260902182526 86 360 7.0 14.0 0.00 0.00 0.00 35 1013.5
20260902182028 86 360 5.0 11.0 0.00 0.00 0.00 35 1013.4
20260902181545 86 360 4.0 13.0 0.00 0.00 0.00 35 1013.4
20260902181027 86 360 6.0 13.0 0.00 0.00 0.00 35 1013.3
20260902180527 86 360 3.0 12.0 0.00 0.00 0.00 35 1013.4
20260902180042 86 360 5.0 12.0 0.00 0.00 0.00 35 1013.4
20260902175527 85 360 6.0 12.0 0.00 0.00 0.00 36 1013.5
20260902175027 85 0 1.0 5.0 0.00 0.00 0.00 36 1013.4
20260902174547 85 360 2.0 4.0 0.00 0.00 0.00 36 1013.4
20260902174027 85 0 0.0 6.0 0.00 0.00 0.00 36 1013.4
20260902173526 85 360 1.0 6.0 0.00 0.00 0.00 36 1013.5
20260902173046 85 360 4.0 6.0 0.00 0.00 0.00 36 1013.3
20260902172527 86 360 2.0 5.0 0.00 0.00 0.00 36 1013.3
20260902172028 86 0 0.0 5.0 0.00 0.00 0.00 36 1013.2
20260902171540 86 360 1.0 5.0 0.00 0.00 0.00 36 1013.2
20260902171028 86 339 2.0 5.0 0.00 0.00 0.00 35 1013.1
20260902170528 86 360 3.0 5.0 0.00 0.00 0.00 35 1013.1
20260902170039 86 321 3.0 5.0 0.00 0.00 0.00 35 1013.1
20260902165524 87 331 1.0 5.0 0.00 0.00 0.00 35 1013.2
20260902165028 87 0 2.0 9.0 0.00 0.00 0.00 35 1013.2
20260902164550 87 325 2.0 11.0 0.00 0.00 0.00 35 1013.2
20260902164024 87 319 5.0 11.0 0.00 0.00 0.00 35 1013.2
20260902163524 88 317 5.0 11.0 0.00 0.00 0.00 34 1013.2
20260902163044 88 11 2.0 11.0 0.00 0.00 0.00 34 1013.3
20260902162524 88 0 1.0 11.0 0.00 0.00 0.00 34 1013.2
20260902162026 89 14 3.0 9.0 0.00 0.00 0.00 34 1013.3
20260902161542 89 50 3.0 9.0 0.00 0.00 0.00 34 1013.4
20260902161028 89 0 2.0 4.0 0.00 0.00 0.00 33 1013.3
20260902160530 89 26 2.0 8.0 0.00 0.00 0.00 33 1013.4
20260902160046 89 92 1.0 8.0 0.00 0.00 0.00 33 1013.4
20260902155525 89 360 3.0 8.0 0.00 0.00 0.00 33 1013.4
20260902155026 89 323 2.0 8.0 0.00 0.00 0.00 33 1013.4
20260902154541 89 348 4.0 8.0 0.00 0.00 0.00 33 1013.4
20260902154026 90 58 3.0 8.0 0.00 0.00 0.00 33 1013.4
20260902153527 90 25 2.0 9.0 0.00 0.00 0.00 33 1013.3
20260902153046 90 360 3.0 10.0 0.00 0.00 0.00 33 1013.3
20260902152526 90 28 4.0 11.0 0.00 0.00 0.00 33 1013.4
20260902152026 90 5 4.0 11.0 0.00 0.00 0.00 33 1013.5
20260902151552 90 326 4.0 11.0 0.00 0.00 0.00 32 1013.4
20260902151026 90 351 4.0 12.0 0.00 0.00 0.00 33 1013.5
20260902150526 90 40 6.0 12.0 0.00 0.00 0.00 32 1013.5
20260902150044 90 355 5.0 13.0 0.00 0.00 0.00 32 1013.4
20260902145525 90 327 8.0 13.0 0.00 0.00 0.00 32 1013.4
20260902145028 90 47 8.0 15.0 0.00 0.00 0.00 31 1013.5
20260902144540 90 23 8.0 15.0 0.00 0.00 0.00 32 1013.4
20260902144026 90 360 9.0 16.0 0.00 0.00 0.00 32 1013.4
20260902143527 90 5 9.0 16.0 0.00 0.00 0.00 32 1013.6
20260902143050 90 16 8.0 18.0 0.00 0.00 0.00 32 1013.5
20260902142527 90 38 8.0 18.0 0.00 0.00 0.00 31 1013.6
20260902142027 90 34 10.0 17.0 0.00 0.00 0.00 31 1013.6
20260902141546 90 52 8.0 18.0 0.00 0.00 0.00 31 1013.6
20260902141025 90 19 11.0 18.0 0.00 0.00 0.00 31 1013.7
20260902140524 90 19 10.0 19.0 0.00 0.00 0.00 31 1013.8
20260902140039 90 28 12.0 19.0 0.00 0.00 0.00 31 1013.8
20260902135526 91 352 9.0 18.0 0.00 0.00 0.00 31 1013.8
20260902135026 91 40 9.0 18.0 0.00 0.00 0.00 31 1013.8
20260902134544 91 19 6.0 14.0 0.00 0.00 0.00 30 1013.9
20260902134027 91 59 8.0 14.0 0.00 0.00 0.00 31 1013.9
20260902133528 91 48 7.0 19.0 0.00 0.00 0.00 30 1014.0
20260902133046 91 66 9.0 19.0 0.00 0.00 0.00 30 1013.9
20260902132532 91 80 10.0 17.0 0.00 0.00 0.00 30 1013.9
20260902132026 92 24 3.0 13.0 0.00 0.00 0.00 30 1014.0
20260902131544 92 54 5.0 16.0 0.00 0.00 0.00 30 1013.9
20260902131027 91 55 10.0 16.0 0.00 0.00 0.00 30 1014.0
20260902130530 91 360 9.0 17.0 0.00 0.00 0.00 31 1014.1
20260902130039 91 360 9.0 17.0 0.00 0.00 0.00 30 1014.2
20260902125526 91 64 8.0 18.0 0.00 0.00 0.00 30 1014.0
20260902125028 92 57 10.0 18.0 0.00 0.00 0.00 29 1014.2
20260902124545 92 44 7.0 18.0 0.00 0.00 0.00 29 1014.1
20260902124025 92 355 8.0 17.0 0.00 0.00 0.00 29 1014.2
20260902123525 92 19 7.0 18.0 0.00 0.00 0.00 29 1014.3
20260902123044 92 28 8.0 19.0 0.00 0.00 0.00 29 1014.3
20260902122527 92 22 12.0 19.0 0.00 0.00 0.00 29 1014.3
20260902122030 92 55 7.0 17.0 0.00 0.00 0.00 29 1014.3
20260902121544 92 33 7.0 18.0 0.00 0.00 0.00 29 1014.4
20260902121026 92 25 11.0 18.0 0.00 0.00 0.00 29 1014.3
20260902120527 92 349 10.0 20.0 0.00 0.00 0.00 29 1014.5
20260902120049 92 21 9.0 20.0 0.00 0.00 0.00 28 1014.5
20260902115526 92 69 5.0 16.0 0.00 0.00 0.00 29 1014.5
20260902115026 92 32 10.0 18.0 0.00 0.00 0.00 28 1014.5
20260902114546 93 65 6.0 18.0 0.00 0.00 0.00 29 1014.5
20260902114028 93 360 6.0 20.0 0.00 0.00 0.00 29 1014.6
20260902113526 92 355 10.0 21.0 0.00 0.00 0.00 29 1014.5
20260902113043 92 65 9.0 21.0 0.00 0.00 0.00 29 1014.6
20260902112527 92 32 11.0 24.0 0.00 0.00 0.00 29 1014.6
20260902112024 92 11 12.0 24.0 0.00 0.00 0.00 28 1014.6
20260902111541 92 360 12.0 22.0 0.00 0.00 0.00 28 1014.6
20260902111025 92 31 12.0 22.0 0.00 0.00 0.00 28 1014.7
20260902110525 92 67 8.0 23.0 0.00 0.00 0.00 27 1014.7
20260902110044 92 70 11.0 23.0 0.00 0.00 0.00 27 1014.7
20260902105526 92 44 14.0 24.0 0.00 0.00 0.00 27 1014.7